User: anonymous   Login
Location: Unspecified
(0.0000°N, 0.0000°E)
Time: 07:39:44
(UTC+00:00)
Language:

GOMX 1 - Orbit

View from above orbital plane
View from above orbital plane
View from above satellite
View from above satellite

Ground track
Ground track

The orbit data is extracted from the following two-line orbital elements,

1 39423U 13066H   17289.82833830  .00000199  00000-0  48663-4 0  9999
2 39423  97.6960 268.2056 0177141  58.0716 303.7558 14.52881961206898
Epoch (UTC): 16 October 2017 19:52:48
Eccentricity: 0.0177141
inclination: 97.6960°
perigee height: 590 km
apogee height: 842 km
right ascension of ascending node: 268.2056°
argument of perigee: 58.0716°
revolutions per day: 14.52881961
mean anomaly at epoch: 303.7558°
orbit number at epoch: 20689

The dashed part of the orbit path shows where the satellite is in the earth's shadow,  

DLR